Starlink 30701

operational
NORAD ID: 57950 Int'l Des: 2023-148 Owner: SPXS Country: US Constellation: starlink
LEOCIRCULAR

Starlink 30701について

説明を読み込み中...

リアルタイム位置

3D地球を読み込み中...

次回通過

高度履歴

Altitude vs Time

uPlot chart will show altitude changes over time

軌道要素

1 57950U 23148R 25258.33305585 -.00001461 00000-0 -37229-4 0 9999
2 57950 53.1591 118.8365 0000999 100.9661 259.1452 15.30193366111574
Epoch: Sep 15, 2025 • Age: 14 hours

現在のステータス

高度 486.4 km
速度 7.62 km/s
衛星直下点 -33.77°S, 122.49°E
打ち上げ日 Sep 25, 2023
運用期間 1.9 years
タイプ internet

技術仕様

分類 Payload
質量 730.00 kg
乾燥質量 700.00 kg
総質量 730.00 kg
長さ 0.30 m
直径 4.10 m
スパン 29.00 m
形状 Box + pan
製造者 SPXS
バスタイプ Starlink V2M
フェーズステータス In Orbit
所有者/国 SPXS/US

大規模コンステレーション

Loading constellations...